EVA005 KLAX-RCTP

Flight info

Callsign EVA005
Flight time N/A
Altitude 30000
Route SUMMR2 MCKEY DCT LIBBO DCT BRINY DCT BOARS DCT AMAKR DCT REDWD DCT TRYSH DCT 41N130W 43N140W/N0495F320 46N150W 48N160W 49N170W/N0485F340 48N180E 45N170E 39N160E 32N150E/N0483F360 DCT UKATA DCT BIXAK DCT DELTA/N0481F380 DCT ONC Y525 KXC Y62 GANAS Y576 LILRA R595 GRACE GRACE1A
Aircraft B77W/H-SDE1E2E3FGHIJ1J3J4J5LM1P2RWXYZ/LB1D1

Departure

Time 2026-05-04 01:07
Airport Los Angeles International Airport (KLAX)

Arrival

Time N/A
Airport Taiwan Taoyuan International Airport (RCTP)
Time Latitude Longitude Altitude Speed Heading
2026-05-04 00:10 33.94176 -118.41108 130 ft 0 kts 82°
2026-05-04 00:55 33.94173 -118.41136 129 ft 4 kts 83°
2026-05-04 00:55 33.94170 -118.41168 126 ft 4 kts 83°
2026-05-04 00:55 33.94168 -118.41188 125 ft 3 kts 83°
2026-05-04 00:55 33.94162 -118.41210 125 ft 4 kts
2026-05-04 00:56 33.94137 -118.41204 125 ft 4 kts 343°
2026-05-04 00:56 33.94120 -118.41200 125 ft 1 kts 353°
2026-05-04 00:56 33.94117 -118.41199 125 ft 0 kts 353°
2026-05-04 01:00 33.94118 -118.41199 130 ft 0 kts 353°
2026-05-04 01:00 33.94126 -118.41200 125 ft 4 kts 353°
2026-05-04 01:00 33.94162 -118.41206 127 ft 7 kts 353°
2026-05-04 01:00 33.94216 -118.41213 127 ft 9 kts 353°
2026-05-04 01:01 33.94286 -118.41224 127 ft 11 kts 353°
2026-05-04 01:01 33.94370 -118.41235 128 ft 13 kts 354°
2026-05-04 01:01 33.94466 -118.41251 127 ft 15 kts 352°
2026-05-04 01:01 33.94571 -118.41269 128 ft 15 kts 352°
2026-05-04 01:02 33.94677 -118.41287 128 ft 15 kts 352°
2026-05-04 01:02 33.94769 -118.41271 126 ft 14 kts 50°
2026-05-04 01:02 33.94807 -118.41163 126 ft 14 kts 77°
2026-05-04 01:02 33.94823 -118.41046 128 ft 14 kts 84°
2026-05-04 01:03 33.94833 -118.40928 125 ft 14 kts 84°
2026-05-04 01:03 33.94843 -118.40810 130 ft 14 kts 84°
2026-05-04 01:03 33.94855 -118.40693 130 ft 14 kts 82°
2026-05-04 01:03 33.94867 -118.40576 129 ft 14 kts 83°
2026-05-04 01:04 33.94880 -118.40458 127 ft 14 kts 83°
2026-05-04 01:04 33.94892 -118.40341 128 ft 14 kts 83°
2026-05-04 01:04 33.94905 -118.40224 126 ft 14 kts 83°
2026-05-04 01:04 33.94916 -118.40117 127 ft 0 kts 83°
2026-05-04 01:05 33.94916 -118.40116 127 ft 1 kts 83°
2026-05-04 01:06 33.94931 -118.40084 129 ft 6 kts 36°
2026-05-04 01:06 33.94969 -118.40069 127 ft 6 kts
2026-05-04 01:06 33.95008 -118.40080 126 ft 6 kts 314°
2026-05-04 01:06 33.95020 -118.40133 125 ft 7 kts 272°
2026-05-04 01:07 33.94999 -118.40360 130 ft 65 kts 263°
2026-05-04 01:07 33.94908 -118.41244 128 ft 147 kts 263°
2026-05-04 01:07 33.94748 -118.42770 168 ft 213 kts 264°
2026-05-04 01:07 33.94621 -118.44599 1093 ft 217 kts 265°
2026-05-04 01:08 33.94462 -118.46373 2188 ft 214 kts 260°
2026-05-04 01:08 33.94272 -118.48187 2530 ft 226 kts 266°
2026-05-04 01:08 33.94211 -118.50121 2981 ft 234 kts 268°
2026-05-04 01:08 33.94169 -118.52089 3517 ft 236 kts 265°
2026-05-04 01:09 33.94012 -118.54070 4114 ft 239 kts 263°
2026-05-04 01:09 33.93835 -118.56101 4569 ft 249 kts 264°
2026-05-04 01:09 33.93660 -118.58220 4976 ft 259 kts 264°
2026-05-04 01:09 33.93480 -118.60448 5027 ft 272 kts 264°
2026-05-04 01:10 33.93301 -118.62707 5726 ft 269 kts 264°
2026-05-04 01:10 33.93124 -118.64946 6511 ft 267 kts 264°
2026-05-04 01:10 33.92951 -118.67191 7045 ft 274 kts 264°
2026-05-04 01:10 33.92772 -118.69483 7672 ft 275 kts 264°
2026-05-04 01:11 33.92592 -118.71777 8303 ft 277 kts 263°
2026-05-04 01:11 33.92410 -118.74109 8871 ft 281 kts 263°
2026-05-04 01:11 33.92229 -118.76443 9485 ft 284 kts 263°
2026-05-04 01:11 33.92043 -118.78830 10107 ft 285 kts 262°
2026-05-04 01:12 33.91852 -118.81252 10443 ft 299 kts 262°
2026-05-04 01:12 33.91657 -118.83822 10570 ft 318 kts 264°
2026-05-04 01:12 33.91657 -118.86563 10717 ft 338 kts 270°
2026-05-04 01:12 33.91802 -118.89473 10932 ft 355 kts 271°
2026-05-04 01:13 33.91947 -118.92481 11405 ft 364 kts 270°
2026-05-04 01:13 33.92059 -118.95554 11997 ft 369 kts 270°
2026-05-04 01:13 33.92153 -118.98657 12682 ft 373 kts 270°
2026-05-04 01:13 33.92415 -119.01760 13182 ft 375 kts 282°
2026-05-04 01:14 33.93557 -119.04615 13501 ft 389 kts 304°
2026-05-04 01:14 33.95223 -119.07213 13913 ft 390 kts 302°
2026-05-04 01:14 33.96674 -119.09991 14435 ft 392 kts 297°
2026-05-04 01:14 33.98047 -119.12820 15232 ft 390 kts 297°
2026-05-04 01:15 33.99425 -119.15574 16019 ft 388 kts 297°
2026-05-04 01:15 34.00903 -119.18346 16647 ft 388 kts 302°
2026-05-04 01:15 34.02677 -119.20447 16890 ft 403 kts 321°
2026-05-04 01:15 34.03960 -119.21436 16977 ft 407 kts 324°
2026-05-04 01:16 34.06346 -119.23220 17266 ft 414 kts 321°
2026-05-04 01:16 34.08706 -119.25173 17926 ft 414 kts 319°
2026-05-04 01:16 34.11047 -119.27193 18609 ft 413 kts 318°
2026-05-04 01:16 34.13374 -119.29222 19190 ft 414 kts 318°
2026-05-04 01:17 34.15715 -119.31263 19710 ft 416 kts 317°
2026-05-04 01:17 34.18073 -119.33312 20225 ft 419 kts 317°
2026-05-04 01:17 34.20454 -119.35373 20732 ft 421 kts 316°
2026-05-04 01:17 34.22843 -119.37438 21269 ft 424 kts 316°
2026-05-04 01:18 34.25171 -119.39450 21736 ft 426 kts 316°
2026-05-04 01:18 34.27412 -119.41386 22226 ft 428 kts 315°
2026-05-04 01:18 34.29251 -119.42976 22603 ft 429 kts 315°
2026-05-04 01:18 34.31683 -119.45080 23090 ft 431 kts 315°
2026-05-04 01:19 34.34128 -119.47197 23561 ft 433 kts 314°
2026-05-04 01:19 34.36581 -119.49322 23957 ft 435 kts 314°
2026-05-04 01:19 34.39045 -119.51458 24370 ft 436 kts 314°
2026-05-04 01:19 34.40531 -119.52753 24626 ft 436 kts 313°
2026-05-04 01:20 34.42900 -119.55243 24957 ft 423 kts 303°
2026-05-04 01:20 34.44782 -119.57967 25264 ft 421 kts 299°
2026-05-04 01:20 34.46604 -119.60745 25668 ft 422 kts 300°
2026-05-04 01:20 34.48462 -119.63516 26119 ft 424 kts 300°
2026-05-04 01:21 34.50339 -119.66266 26491 ft 425 kts 301°
2026-05-04 01:21 34.52243 -119.69017 26834 ft 428 kts 301°
2026-05-04 01:21 34.54167 -119.71775 27185 ft 430 kts 301°
2026-05-04 01:21 34.56103 -119.74538 27534 ft 432 kts 301°
2026-05-04 01:22 34.58055 -119.77320 27860 ft 434 kts 301°
2026-05-04 01:22 34.60016 -119.80113 28199 ft 436 kts 301°
2026-05-04 01:22 34.61985 -119.82918 28566 ft 437 kts 301°
2026-05-04 01:22 34.63963 -119.85738 28839 ft 439 kts 301°
2026-05-04 01:23 34.65915 -119.88526 29126 ft 440 kts 301°
2026-05-04 01:23 34.67830 -119.91264 29401 ft 442 kts 301°
2026-05-04 01:23 34.69813 -119.94101 29661 ft 443 kts 301°
2026-05-04 01:23 34.71771 -119.96903 29965 ft 445 kts 301°
2026-05-04 01:24 34.73776 -119.99776 29989 ft 446 kts 301°
2026-05-04 01:24 34.77764 -120.05487 29995 ft 439 kts 301°
2026-05-04 01:25 34.81701 -120.11143 30009 ft 439 kts 301°
2026-05-04 01:25 34.85654 -120.16829 30023 ft 440 kts 301°
2026-05-04 01:26 34.89591 -120.22519 30060 ft 440 kts 300°
2026-05-04 01:26 34.93546 -120.28233 30040 ft 442 kts 300°
2026-05-04 01:27 34.97514 -120.33970 30014 ft 441 kts 300°
2026-05-04 01:27 35.01470 -120.39701 30026 ft 442 kts 300°
2026-05-04 01:28 35.05426 -120.45444 30046 ft 443 kts 300°
2026-05-04 01:28 35.09382 -120.51196 30031 ft 442 kts 300°
2026-05-04 01:29 35.13328 -120.56940 30018 ft 440 kts 300°
2026-05-04 01:29 35.17255 -120.62667 30016 ft 439 kts 300°
2026-05-04 01:30 35.21166 -120.68381 30029 ft 438 kts 299°
2026-05-04 01:30 35.25064 -120.74087 30016 ft 436 kts 299°
2026-05-04 01:31 35.28945 -120.79779 30021 ft 435 kts 299°
2026-05-04 01:31 35.32819 -120.85469 30024 ft 435 kts 299°
2026-05-04 01:32 35.36688 -120.91159 30042 ft 436 kts 299°
2026-05-04 01:32 35.40567 -120.96875 30046 ft 436 kts 298°
2026-05-04 01:33 35.44440 -121.02591 30028 ft 436 kts 298°
2026-05-04 01:33 35.48320 -121.08325 30023 ft 436 kts 298°
2026-05-04 01:34 35.52246 -121.14012 30047 ft 438 kts 299°
2026-05-04 01:34 35.56210 -121.19683 30034 ft 437 kts 299°
2026-05-04 01:35 35.60114 -121.25289 30025 ft 437 kts 299°
2026-05-04 01:35 35.64059 -121.30977 30031 ft 436 kts 299°
2026-05-04 01:36 35.67965 -121.36627 30028 ft 437 kts 300°
2026-05-04 01:36 35.71907 -121.42339 30028 ft 439 kts 300°
2026-05-04 01:37 35.75865 -121.48081 30019 ft 440 kts 300°
2026-05-04 01:37 35.79832 -121.53843 30037 ft 441 kts 299°
2026-05-04 01:38 35.80362 -121.54613 30034 ft 441 kts 299°
2026-05-04 01:38 35.83992 -121.59899 30029 ft 443 kts 300°
2026-05-04 01:39 35.87982 -121.65716 30027 ft 444 kts 300°
2026-05-04 01:39 35.91972 -121.71542 30025 ft 445 kts 300°
2026-05-04 01:40 35.95965 -121.77383 30061 ft 445 kts 300°
2026-05-04 01:40 36.00497 -121.82809 30052 ft 466 kts 313°
2026-05-04 01:41 36.05043 -121.86572 30030 ft 482 kts 322°
2026-05-04 01:41 36.11082 -121.90294 30034 ft 488 kts 324°
2026-05-04 01:42 36.17151 -121.94033 30031 ft 488 kts 324°
2026-05-04 01:42 36.23216 -121.97815 30029 ft 486 kts 324°
2026-05-04 01:43 36.29235 -122.01592 30028 ft 484 kts 323°
2026-05-04 01:43 36.35232 -122.05369 30034 ft 484 kts 325°
2026-05-04 01:44 36.41230 -122.09152 30047 ft 484 kts 325°
2026-05-04 01:44 36.47249 -122.12953 30046 ft 486 kts 325°
2026-05-04 01:45 36.53283 -122.16772 30033 ft 488 kts 327°
2026-05-04 01:45 36.62389 -122.22539 30030 ft 491 kts 327°
2026-05-04 01:46 36.68475 -122.26406 30029 ft 492 kts 329°
2026-05-04 01:46 36.74595 -122.30298 30024 ft 493 kts 329°
2026-05-04 01:47 36.80670 -122.34168 30036 ft 494 kts 329°
2026-05-04 01:47 36.86791 -122.38079 30029 ft 495 kts 331°
2026-05-04 01:48 36.92955 -122.42021 30025 ft 495 kts 331°
2026-05-04 01:48 36.99052 -122.45927 30014 ft 495 kts 331°
2026-05-04 01:49 37.05221 -122.49890 30018 ft 496 kts 332°
2026-05-04 01:49 37.11327 -122.53816 30007 ft 496 kts 332°
2026-05-04 01:50 37.17469 -122.57775 30005 ft 497 kts 332°
2026-05-04 01:50 37.23622 -122.61749 29995 ft 498 kts 334°
2026-05-04 01:51 37.29780 -122.65726 30019 ft 498 kts 334°
2026-05-04 01:51 37.36114 -122.69252 29994 ft 497 kts 342°
2026-05-04 01:52 37.42563 -122.72337 30007 ft 497 kts 343°
2026-05-04 01:52 37.49030 -122.75453 30019 ft 498 kts 342°
2026-05-04 01:53 37.55493 -122.78665 29992 ft 499 kts 344°
2026-05-04 01:53 37.61958 -122.81913 30008 ft 501 kts 344°
2026-05-04 01:54 37.68433 -122.85171 30001 ft 502 kts 344°
2026-05-04 01:54 37.74922 -122.88443 30004 ft 501 kts 345°
2026-05-04 01:55 37.81383 -122.91704 29986 ft 500 kts 345°
2026-05-04 01:55 37.87843 -122.94969 29995 ft 499 kts 345°
2026-05-04 01:56 37.94297 -122.98237 30007 ft 499 kts 345°
2026-05-04 01:56 38.00698 -123.01485 29992 ft 499 kts 345°
2026-05-04 01:57 38.07178 -123.04780 29992 ft 498 kts 345°
2026-05-04 01:57 38.13558 -123.08032 29993 ft 497 kts 345°
2026-05-04 01:58 38.19964 -123.11300 29992 ft 496 kts 345°
2026-05-04 01:58 38.26178 -123.15266 29983 ft 505 kts 333°
2026-05-04 01:59 38.32086 -123.20145 29990 ft 506 kts 334°
2026-05-04 01:59 38.38046 -123.24949 29958 ft 507 kts 334°
2026-05-04 02:00 38.44031 -123.29734 29992 ft 509 kts 334°
2026-05-04 02:00 38.50057 -123.34558 29997 ft 512 kts 334°
2026-05-04 02:01 38.56093 -123.39406 29982 ft 514 kts 334°
2026-05-04 02:01 38.62143 -123.44280 29995 ft 515 kts 334°
2026-05-04 02:02 38.68204 -123.49173 29979 ft 515 kts 334°
2026-05-04 02:02 38.74261 -123.54072 29990 ft 514 kts 334°
2026-05-04 02:03 38.80282 -123.58951 29993 ft 512 kts 334°
2026-05-04 02:03 38.86296 -123.63835 29984 ft 510 kts 333°
2026-05-04 02:04 38.92290 -123.68711 30006 ft 509 kts 333°
2026-05-04 02:04 38.98117 -123.73917 29984 ft 517 kts 322°
2026-05-04 02:05 39.00557 -123.77345 30016 ft 523 kts 311°
2026-05-04 02:05 39.02541 -123.81204 30002 ft 528 kts 301°
2026-05-04 02:05 39.05641 -123.89749 30010 ft 528 kts 298°
2026-05-04 02:06 39.08808 -123.98286 30020 ft 528 kts 299°
2026-05-04 02:06 39.12021 -124.06783 30015 ft 527 kts 299°
2026-05-04 02:07 39.15218 -124.15247 29994 ft 526 kts 299°
2026-05-04 02:07 39.18404 -124.23728 30004 ft 525 kts 299°
2026-05-04 02:08 39.21569 -124.32186 30001 ft 523 kts 298°
2026-05-04 02:08 39.24718 -124.40631 29994 ft 522 kts 298°
2026-05-04 02:09 39.27854 -124.49061 30007 ft 521 kts 298°
2026-05-04 02:09 39.30986 -124.57502 29996 ft 522 kts 298°
2026-05-04 02:10 39.34119 -124.65970 29997 ft 523 kts 298°
2026-05-04 02:10 39.37248 -124.74453 30011 ft 524 kts 298°
2026-05-04 02:11 39.40381 -124.82973 29992 ft 525 kts 298°
2026-05-04 02:11 39.43487 -124.91442 29995 ft 525 kts 298°
2026-05-04 02:12 39.46625 -125.00024 29993 ft 525 kts 298°
2026-05-04 02:12 39.49717 -125.08506 29978 ft 524 kts 298°
2026-05-04 02:13 39.52841 -125.17098 29997 ft 523 kts 298°
2026-05-04 02:13 39.55933 -125.25627 29990 ft 523 kts 298°
2026-05-04 02:14 39.59001 -125.34116 29984 ft 523 kts 298°
2026-05-04 02:14 39.62080 -125.42661 29992 ft 523 kts 298°
2026-05-04 02:15 39.65155 -125.51217 29994 ft 524 kts 298°
2026-05-04 02:15 39.68230 -125.59799 29994 ft 525 kts 298°
2026-05-04 02:16 39.71311 -125.68422 29994 ft 526 kts 297°
2026-05-04 02:16 39.74407 -125.77114 29991 ft 527 kts 297°
2026-05-04 02:17 39.77457 -125.85703 29989 ft 527 kts 297°
2026-05-04 02:17 39.80523 -125.94364 29991 ft 527 kts 297°
2026-05-04 02:18 39.83580 -126.03025 29995 ft 526 kts 297°
2026-05-04 02:18 39.86631 -126.11694 29969 ft 526 kts 297°
2026-05-04 02:19 39.89664 -126.20340 29972 ft 525 kts 297°
2026-05-04 02:19 39.92687 -126.28982 29984 ft 524 kts 297°
2026-05-04 02:20 39.95706 -126.37637 29983 ft 524 kts 297°
2026-05-04 02:20 39.98722 -126.46312 29972 ft 525 kts 297°
2026-05-04 02:21 40.01665 -126.55025 29975 ft 526 kts 294°
2026-05-04 02:21 40.04307 -126.63910 29984 ft 527 kts 293°
2026-05-04 02:22 40.06935 -126.72835 29964 ft 527 kts 294°
2026-05-04 02:22 40.09609 -126.81728 29977 ft 526 kts 294°
2026-05-04 02:23 40.12293 -126.90630 29981 ft 526 kts 294°
2026-05-04 02:23 40.14964 -126.99536 29984 ft 526 kts 294°
2026-05-04 02:24 40.17623 -127.08431 29975 ft 525 kts 294°
2026-05-04 02:24 40.20278 -127.17328 29976 ft 525 kts 294°
2026-05-04 02:25 40.22925 -127.26233 29985 ft 524 kts 294°
2026-05-04 02:25 40.25559 -127.35125 29980 ft 524 kts 293°
2026-05-04 02:26 40.28170 -127.43969 29985 ft 524 kts 293°
2026-05-04 02:26 40.30368 -127.51440 29978 ft 524 kts 293°
2026-05-04 02:27 40.33407 -127.61801 29973 ft 524 kts 293°
2026-05-04 02:27 40.35593 -127.69279 29979 ft 524 kts 293°
2026-05-04 02:28 40.38613 -127.79648 29982 ft 524 kts 293°
2026-05-04 02:28 40.40790 -127.87144 29981 ft 524 kts 293°
2026-05-04 02:29 40.43373 -127.96069 29991 ft 523 kts 292°
2026-05-04 02:29 40.45944 -128.04984 29988 ft 522 kts 292°
2026-05-04 02:30 40.48487 -128.13834 29982 ft 521 kts 292°
2026-05-04 02:30 40.51038 -128.22740 29981 ft 520 kts 292°
2026-05-04 02:31 40.53572 -128.31617 29983 ft 519 kts 292°
2026-05-04 02:31 40.56103 -128.40513 29983 ft 519 kts 292°
2026-05-04 02:32 40.58625 -128.49408 29984 ft 518 kts 292°
2026-05-04 02:32 40.61132 -128.58285 29976 ft 517 kts 292°
2026-05-04 02:33 40.63627 -128.67145 29974 ft 515 kts 292°
2026-05-04 02:33 40.66112 -128.76002 29979 ft 514 kts 292°
2026-05-04 02:34 40.68582 -128.84836 29980 ft 514 kts 292°
2026-05-04 02:34 40.71043 -128.93667 29984 ft 513 kts 292°
2026-05-04 02:35 40.73497 -129.02506 29984 ft 513 kts 292°
2026-05-04 02:35 40.75940 -129.11335 29985 ft 513 kts 292°
2026-05-04 02:36 40.78376 -129.20170 29991 ft 512 kts 292°
2026-05-04 02:36 40.80805 -129.29011 29985 ft 512 kts 292°
2026-05-04 02:37 40.83223 -129.37843 29989 ft 511 kts 292°
2026-05-04 02:37 40.85631 -129.46667 29980 ft 510 kts 292°
2026-05-04 02:38 40.88028 -129.55484 29987 ft 509 kts 292°
2026-05-04 02:38 40.90398 -129.64233 29996 ft 508 kts 292°
2026-05-04 02:39 40.92789 -129.73089 29996 ft 508 kts 292°
2026-05-04 02:39 40.95136 -129.81815 30004 ft 507 kts 292°
2026-05-04 02:40 40.97492 -129.90606 29995 ft 507 kts 292°
2026-05-04 02:40 40.99841 -129.99397 30006 ft 506 kts 292°
2026-05-04 02:41 41.02113 -130.08233 29999 ft 507 kts 290°
2026-05-04 02:41 41.04295 -130.17076 30011 ft 505 kts 290°
2026-05-04 02:42 41.06473 -130.25932 30014 ft 505 kts 290°
2026-05-04 02:42 41.08653 -130.34768 30016 ft 504 kts 290°
2026-05-04 02:43 41.10833 -130.43603 30016 ft 504 kts 290°
2026-05-04 02:43 41.13005 -130.52439 30025 ft 504 kts 290°
2026-05-04 02:44 41.15170 -130.61282 30025 ft 504 kts 290°
2026-05-04 02:44 41.17330 -130.70144 30024 ft 505 kts 290°
2026-05-04 02:45 41.19483 -130.79009 30026 ft 504 kts 290°
2026-05-04 02:45 41.21631 -130.87885 30034 ft 504 kts 290°
2026-05-04 02:46 41.23770 -130.96761 30030 ft 504 kts 290°
2026-05-04 02:46 41.25902 -131.05638 30017 ft 504 kts 290°
2026-05-04 02:47 41.28025 -131.14515 30038 ft 504 kts 290°
2026-05-04 02:47 41.30145 -131.23412 30038 ft 504 kts 290°
2026-05-04 02:48 41.32242 -131.32248 30045 ft 504 kts 290°
2026-05-04 02:48 41.34347 -131.41153 30035 ft 505 kts 290°
2026-05-04 02:49 41.36449 -131.50077 30056 ft 506 kts 290°
2026-05-04 02:49 41.38548 -131.59024 30053 ft 507 kts 290°
2026-05-04 02:50 41.40639 -131.67974 30054 ft 507 kts 290°
2026-05-04 02:50 41.42732 -131.76973 30055 ft 509 kts 291°
2026-05-04 02:51 41.44825 -131.85996 30067 ft 511 kts 291°
2026-05-04 02:51 41.46919 -131.95061 30062 ft 512 kts 291°
2026-05-04 02:52 41.49006 -132.04145 30037 ft 513 kts 292°
2026-05-04 02:52 41.51106 -132.13312 30303 ft 518 kts 292°
2026-05-04 02:53 41.52153 -132.17897 30655 ft 516 kts 292°
2026-05-04 02:53 41.53193 -132.22471 31058 ft 514 kts 292°
2026-05-04 02:53 41.54225 -132.27020 31433 ft 511 kts 292°
2026-05-04 02:53 41.55240 -132.31497 31780 ft 510 kts 292°
2026-05-04 02:54 41.56279 -132.36088 32012 ft 510 kts 292°
2026-05-04 02:54 41.57291 -132.40564 32009 ft 510 kts 292°
2026-05-04 02:54 41.59326 -132.49599 32077 ft 506 kts 292°
2026-05-04 02:55 41.62350 -132.63088 32087 ft 505 kts 292°
2026-05-04 02:56 41.64356 -132.72084 32067 ft 505 kts 292°
2026-05-04 02:56 41.66355 -132.81082 32089 ft 505 kts 292°
2026-05-04 02:57 41.68345 -132.90082 32098 ft 505 kts 292°
2026-05-04 02:57 41.70334 -132.99111 32096 ft 506 kts 292°
2026-05-04 02:58 41.72314 -133.08146 32100 ft 506 kts 292°
2026-05-04 02:58 41.74292 -133.17204 32084 ft 507 kts 292°
2026-05-04 02:59 41.76261 -133.26259 32104 ft 507 kts 292°
2026-05-04 02:59 41.78225 -133.35329 32108 ft 506 kts 292°
2026-05-04 03:00 41.80179 -133.44398 32105 ft 506 kts 293°
2026-05-04 03:00 41.82127 -133.53467 32113 ft 506 kts 293°
2026-05-04 03:01 41.84066 -133.62535 32119 ft 506 kts 292°
2026-05-04 03:01 41.85985 -133.71549 32123 ft 507 kts 292°
2026-05-04 03:02 41.87925 -133.80703 32125 ft 507 kts 292°
2026-05-04 03:02 41.89833 -133.89746 32125 ft 507 kts 292°
2026-05-04 03:03 41.91746 -133.98854 32109 ft 507 kts 292°
2026-05-04 03:03 41.93649 -134.07956 32087 ft 505 kts 293°
2026-05-04 03:04 41.95533 -134.17006 32116 ft 503 kts 293°
2026-05-04 03:04 41.97407 -134.26043 32129 ft 501 kts 293°
2026-05-04 03:05 41.99269 -134.35057 32137 ft 500 kts 292°
2026-05-04 03:05 42.01120 -134.44057 32115 ft 499 kts 292°
2026-05-04 03:06 42.02965 -134.53067 32133 ft 500 kts 292°
2026-05-04 03:06 42.04808 -134.62107 32151 ft 501 kts 292°
2026-05-04 03:07 42.06646 -134.71169 32148 ft 503 kts 292°
2026-05-04 03:07 42.08483 -134.80260 32140 ft 503 kts 291°
2026-05-04 03:08 42.10307 -134.89343 32143 ft 502 kts 291°
2026-05-04 03:08 42.12121 -134.98414 32155 ft 501 kts 291°
2026-05-04 03:09 42.13927 -135.07476 32154 ft 500 kts 291°
2026-05-04 03:09 42.15719 -135.16512 32147 ft 498 kts 290°
2026-05-04 03:10 42.17498 -135.25519 32148 ft 497 kts 290°
2026-05-04 03:10 42.19268 -135.34524 32158 ft 496 kts 290°
2026-05-04 03:11 42.21029 -135.43525 32166 ft 496 kts 290°
2026-05-04 03:11 42.22779 -135.52502 32165 ft 495 kts 290°
2026-05-04 03:12 42.24519 -135.61481 32155 ft 494 kts 289°
2026-05-04 03:12 42.26249 -135.70445 32163 ft 493 kts 289°
2026-05-04 03:13 42.27968 -135.79393 32170 ft 492 kts 289°
2026-05-04 03:13 42.29675 -135.88317 32166 ft 491 kts 289°
2026-05-04 03:14 42.31087 -135.95734 32172 ft 490 kts 289°
2026-05-04 03:14 42.33063 -136.06156 32180 ft 489 kts 289°
2026-05-04 03:15 42.34460 -136.13560 32180 ft 489 kts 289°
2026-05-04 03:15 42.36135 -136.22471 32175 ft 489 kts 288°
2026-05-04 03:16 42.37802 -136.31385 32188 ft 488 kts 288°
2026-05-04 03:16 42.39460 -136.40296 32184 ft 488 kts 288°
2026-05-04 03:17 42.41108 -136.49192 32188 ft 488 kts 288°
2026-05-04 03:17 42.42750 -136.58094 32188 ft 487 kts 288°
2026-05-04 03:18 42.44381 -136.66986 32189 ft 486 kts 288°
2026-05-04 03:18 42.46003 -136.75868 32195 ft 485 kts 288°
2026-05-04 03:19 42.47616 -136.84736 32194 ft 485 kts 287°
2026-05-04 03:19 42.49220 -136.93599 32192 ft 484 kts 287°
2026-05-04 03:20 42.50802 -137.02387 32199 ft 483 kts 287°
2026-05-04 03:20 42.52388 -137.11239 32199 ft 483 kts 287°
2026-05-04 03:21 42.53966 -137.20083 32197 ft 483 kts 287°
2026-05-04 03:21 42.55537 -137.28935 32210 ft 483 kts 286°
2026-05-04 03:22 42.57101 -137.37792 32199 ft 482 kts 286°
2026-05-04 03:22 42.58658 -137.46646 32202 ft 482 kts 286°
2026-05-04 03:23 42.60206 -137.55496 32203 ft 482 kts 286°
2026-05-04 03:23 42.61746 -137.64343 32196 ft 481 kts 286°
2026-05-04 03:24 42.63278 -137.73187 32214 ft 481 kts 285°
2026-05-04 03:24 42.64800 -137.82020 32214 ft 480 kts 285°
2026-05-04 03:25 42.66314 -137.90851 32201 ft 480 kts 285°
2026-05-04 03:25 42.67824 -137.99694 32211 ft 480 kts 285°
2026-05-04 03:26 42.69323 -138.08523 32218 ft 480 kts 285°
2026-05-04 03:26 42.70817 -138.17364 32211 ft 480 kts 284°
2026-05-04 03:27 42.72306 -138.26227 32213 ft 481 kts 284°
2026-05-04 03:27 42.73790 -138.35091 32212 ft 481 kts 284°
2026-05-04 03:28 42.75269 -138.43983 32224 ft 482 kts 284°
2026-05-04 03:28 42.76742 -138.52883 32223 ft 483 kts 284°
2026-05-04 03:29 42.78201 -138.61745 32222 ft 483 kts 284°
2026-05-04 03:29 42.79664 -138.70669 32220 ft 483 kts 283°
2026-05-04 03:30 42.81120 -138.79605 32224 ft 483 kts 283°
2026-05-04 03:30 42.82569 -138.88544 32227 ft 484 kts 283°
2026-05-04 03:31 42.84012 -138.97494 32222 ft 484 kts 283°
2026-05-04 03:31 42.85449 -139.06450 32226 ft 483 kts 283°
2026-05-04 03:32 42.86879 -139.15404 32225 ft 483 kts 282°
2026-05-04 03:32 42.88299 -139.24357 32229 ft 483 kts 282°
2026-05-04 03:33 42.89712 -139.33304 32225 ft 483 kts 282°
2026-05-04 03:33 42.91119 -139.42266 32230 ft 483 kts 282°
2026-05-04 03:34 42.92520 -139.51239 32235 ft 483 kts 282°
2026-05-04 03:34 42.93915 -139.60221 32232 ft 484 kts 282°
2026-05-04 03:35 42.95301 -139.69197 32235 ft 484 kts 282°
2026-05-04 03:35 42.96683 -139.78194 32233 ft 484 kts 281°
2026-05-04 03:36 42.98050 -139.87139 32235 ft 484 kts 281°
2026-05-04 03:36 42.99430 -139.96134 32240 ft 485 kts 283°
2026-05-04 03:37 43.01622 -140.04844 32238 ft 486 kts 295°
2026-05-04 03:37 43.04684 -140.13072 32242 ft 486 kts 295°
2026-05-04 03:38 43.07689 -140.21360 32240 ft 486 kts 295°
2026-05-04 03:38 43.10662 -140.29678 32239 ft 486 kts 295°
2026-05-04 03:39 43.13627 -140.38008 32236 ft 486 kts 295°
2026-05-04 03:39 43.16582 -140.46324 32240 ft 486 kts 294°
2026-05-04 03:40 43.19534 -140.54657 32236 ft 486 kts 294°
2026-05-04 03:40 43.22478 -140.62986 32234 ft 485 kts 294°
2026-05-04 03:41 43.25413 -140.71317 32242 ft 485 kts 294°
2026-05-04 03:41 43.28340 -140.79649 32239 ft 484 kts 294°
2026-05-04 03:42 43.31242 -140.87938 32242 ft 484 kts 294°
2026-05-04 03:42 43.34154 -140.96277 32239 ft 484 kts 294°
2026-05-04 03:43 43.37060 -141.04624 32236 ft 484 kts 293°
2026-05-04 03:43 43.39960 -141.12983 32238 ft 484 kts 293°
2026-05-04 03:44 43.42851 -141.21341 32234 ft 484 kts 293°
2026-05-04 03:44 43.45737 -141.29710 32246 ft 484 kts 293°
2026-05-04 03:45 43.48616 -141.38079 32225 ft 484 kts 292°
2026-05-04 03:45 43.51485 -141.46451 32241 ft 484 kts 292°
2026-05-04 03:46 43.54351 -141.54841 32247 ft 484 kts 292°
2026-05-04 03:46 43.57220 -141.63259 32233 ft 484 kts 292°
2026-05-04 03:47 43.60073 -141.71660 32232 ft 484 kts 292°
2026-05-04 03:47 43.62925 -141.80086 32231 ft 484 kts 292°
2026-05-04 03:48 43.65771 -141.88519 32226 ft 484 kts 292°
2026-05-04 03:48 43.68609 -141.96953 32230 ft 484 kts 291°
2026-05-04 03:49 43.71437 -142.05386 32229 ft 484 kts 291°
2026-05-04 03:49 43.74266 -142.13845 32228 ft 484 kts 291°
2026-05-04 03:50 43.77083 -142.22297 32234 ft 484 kts 291°
2026-05-04 03:50 43.79894 -142.30760 32226 ft 484 kts 291°
2026-05-04 03:51 43.82698 -142.39228 32224 ft 484 kts 291°
2026-05-04 03:51 43.85494 -142.47699 32220 ft 484 kts 290°
2026-05-04 03:52 43.88291 -142.56195 32221 ft 485 kts 290°
2026-05-04 03:52 43.91086 -142.64715 32219 ft 485 kts 290°
2026-05-04 03:53 43.93855 -142.73184 32218 ft 486 kts 290°
2026-05-04 03:53 43.96643 -142.81737 32235 ft 486 kts 290°
2026-05-04 03:54 43.99423 -142.90292 32219 ft 487 kts 289°
2026-05-04 03:54 44.02206 -142.98888 32214 ft 488 kts 289°
2026-05-04 03:55 44.04986 -143.07501 32208 ft 488 kts 289°
2026-05-04 03:55 44.07755 -143.16104 32222 ft 488 kts 289°
2026-05-04 03:56 44.10521 -143.24732 32196 ft 489 kts 289°
2026-05-04 03:56 44.13284 -143.33373 32200 ft 489 kts 288°
2026-05-04 03:57 44.16038 -143.42021 32196 ft 488 kts 288°
2026-05-04 03:57 44.18786 -143.50674 32199 ft 489 kts 288°
2026-05-04 03:58 44.22906 -143.63704 32189 ft 490 kts 288°
2026-05-04 03:58 44.25630 -143.72355 32186 ft 490 kts 288°
2026-05-04 03:59 44.28363 -143.81062 32185 ft 490 kts 287°
2026-05-04 03:59 44.31090 -143.89781 32182 ft 490 kts 287°
2026-05-04 04:00 44.33810 -143.98505 32183 ft 490 kts 287°
2026-05-04 04:00 44.36522 -144.07233 32208 ft 490 kts 287°
2026-05-04 04:01 44.39233 -144.15988 32184 ft 491 kts 287°
2026-05-04 04:01 44.41936 -144.24749 32173 ft 491 kts 287°
2026-05-04 04:02 44.44638 -144.33533 32169 ft 491 kts 287°
2026-05-04 04:02 44.47333 -144.42324 32189 ft 492 kts 286°
2026-05-04 04:03 44.49572 -144.49652 32167 ft 492 kts 286°
2026-05-04 04:03 44.52261 -144.58481 32158 ft 492 kts 286°
2026-05-04 04:04 44.54940 -144.67307 32157 ft 492 kts 285°
2026-05-04 04:04 44.57610 -144.76133 32161 ft 493 kts 285°
2026-05-04 04:05 44.60278 -144.84987 32155 ft 493 kts 285°
2026-05-04 04:05 44.62937 -144.93841 32151 ft 493 kts 285°
2026-05-04 04:06 44.65574 -145.02649 32145 ft 493 kts 285°
2026-05-04 04:06 44.68227 -145.11542 32135 ft 494 kts 284°
2026-05-04 04:07 44.70874 -145.20448 32132 ft 494 kts 284°
2026-05-04 04:07 44.73517 -145.29372 32123 ft 494 kts 284°
2026-05-04 04:08 44.76155 -145.38306 32155 ft 495 kts 284°
2026-05-04 04:08 44.78785 -145.47253 32124 ft 495 kts 284°
2026-05-04 04:09 44.81414 -145.56221 32109 ft 495 kts 284°
2026-05-04 04:09 44.84028 -145.65174 32096 ft 494 kts 283°
2026-05-04 04:10 44.86641 -145.74151 32101 ft 495 kts 283°
2026-05-04 04:10 44.89222 -145.83057 32095 ft 494 kts 283°
2026-05-04 04:11 44.91817 -145.92042 32081 ft 494 kts 283°
2026-05-04 04:11 44.94404 -146.01029 32082 ft 494 kts 283°
2026-05-04 04:12 44.96989 -146.10045 32076 ft 496 kts 282°
2026-05-04 04:12 44.99573 -146.19091 32067 ft 496 kts 282°
2026-05-04 04:13 45.02149 -146.28139 32062 ft 497 kts 282°
2026-05-04 04:13 45.04723 -146.37209 32116 ft 497 kts 281°
2026-05-04 04:14 45.07292 -146.46307 32059 ft 499 kts 281°
2026-05-04 04:14 45.09861 -146.55431 32031 ft 499 kts 281°
2026-05-04 04:15 45.12427 -146.64577 32047 ft 499 kts 281°
2026-05-04 04:15 45.14982 -146.73716 32071 ft 500 kts 280°
2026-05-04 04:16 45.17536 -146.82898 32034 ft 501 kts 280°
2026-05-04 04:16 45.20088 -146.92096 32026 ft 501 kts 280°
2026-05-04 04:17 45.22628 -147.01285 32010 ft 501 kts 279°
2026-05-04 04:17 45.25160 -147.10484 32000 ft 500 kts 279°
2026-05-04 04:18 45.27685 -147.19692 32001 ft 500 kts 279°
2026-05-04 04:18 45.30197 -147.28888 31998 ft 500 kts 279°
2026-05-04 04:19 45.32705 -147.38104 32066 ft 500 kts 279°
2026-05-04 04:19 45.35192 -147.47290 31996 ft 502 kts 278°
2026-05-04 04:20 45.37692 -147.56548 31984 ft 502 kts 278°
2026-05-04 04:20 45.40189 -147.65828 31975 ft 502 kts 278°
2026-05-04 04:21 45.42681 -147.75126 32025 ft 503 kts 278°
2026-05-04 04:21 45.45166 -147.84438 32023 ft 503 kts 278°
2026-05-04 04:22 45.47646 -147.93761 31967 ft 501 kts 278°
2026-05-04 04:22 45.50103 -148.03029 31954 ft 499 kts 277°
2026-05-04 04:23 45.52542 -148.12276 31976 ft 498 kts 277°
2026-05-04 04:23 45.54974 -148.21539 31947 ft 497 kts 277°
2026-05-04 04:24 45.57387 -148.30762 31942 ft 497 kts 277°
2026-05-04 04:24 45.59796 -148.40008 32025 ft 497 kts 277°
2026-05-04 04:25 45.62201 -148.49284 31940 ft 500 kts 276°
2026-05-04 04:25 45.64612 -148.58608 31934 ft 500 kts 276°
2026-05-04 04:26 45.67012 -148.67922 31916 ft 500 kts 276°
2026-05-04 04:26 45.69411 -148.77268 31996 ft 500 kts 276°
2026-05-04 04:27 45.71801 -148.86633 31919 ft 502 kts 276°
2026-05-04 04:27 45.74193 -148.96030 31907 ft 502 kts 276°
2026-05-04 04:28 45.76577 -149.05434 31889 ft 502 kts 276°
2026-05-04 04:28 45.77765 -149.10132 31999 ft 502 kts 276°
2026-05-04 04:28 45.78953 -149.14854 31950 ft 504 kts 277°
2026-05-04 04:29 45.81314 -149.24256 31893 ft 506 kts 277°
2026-05-04 04:29 45.83708 -149.33815 31872 ft 506 kts 277°
2026-05-04 04:30 45.86063 -149.43255 31870 ft 506 kts 277°
2026-05-04 04:30 45.88427 -149.52789 31886 ft 509 kts 278°
2026-05-04 04:31 45.90795 -149.62367 31852 ft 509 kts 278°
2026-05-04 04:31 45.93157 -149.71958 31844 ft 509 kts 278°
2026-05-04 04:32 45.95509 -149.81553 31902 ft 509 kts 279°
2026-05-04 04:32 45.97853 -149.91164 31831 ft 510 kts 279°
2026-05-04 04:33 46.00194 -150.00787 31821 ft 510 kts 279°
2026-05-04 04:33 46.02590 -150.10407 31805 ft 511 kts 280°
2026-05-04 04:34 46.05017 -150.20020 31806 ft 512 kts 281°
2026-05-04 04:34 46.07435 -150.29654 31784 ft 511 kts 281°
2026-05-04 04:35 46.09838 -150.39302 31780 ft 511 kts 280°
2026-05-04 04:35 46.12227 -150.48957 31765 ft 511 kts 280°
2026-05-04 04:36 46.14605 -150.58609 31742 ft 511 kts 280°
2026-05-04 04:36 46.16979 -150.68285 31742 ft 511 kts 280°
2026-05-04 04:37 46.21696 -150.87632 31831 ft 511 kts 281°
2026-05-04 04:38 46.24051 -150.97359 31738 ft 513 kts 282°
2026-05-04 04:38 46.26400 -151.07092 31707 ft 512 kts 282°
2026-05-04 04:39 46.28733 -151.16800 31682 ft 511 kts 281°
2026-05-04 04:39 46.31053 -151.26506 31712 ft 510 kts 282°
2026-05-04 04:40 46.33364 -151.36215 31665 ft 509 kts 282°
2026-05-04 04:40 46.35642 -151.45825 31633 ft 508 kts 282°
2026-05-04 04:41 46.37926 -151.55503 31635 ft 507 kts 282°
2026-05-04 04:41 46.40195 -151.65171 31621 ft 508 kts 283°
2026-05-04 04:42 46.42460 -151.74855 31597 ft 507 kts 283°
2026-05-04 04:42 46.44715 -151.84533 31591 ft 507 kts 283°
2026-05-04 04:43 46.46958 -151.94212 31560 ft 506 kts 282°
2026-05-04 04:43 46.49195 -152.03909 31539 ft 506 kts 283°
2026-05-04 04:44 46.51420 -152.13592 31541 ft 506 kts 283°
2026-05-04 04:44 46.53637 -152.23283 31516 ft 505 kts 283°
2026-05-04 04:45 46.55844 -152.32978 31527 ft 505 kts 283°
2026-05-04 04:47 46.63484 -152.66877 31456 ft 503 kts 283°
2026-05-04 04:47 46.65647 -152.76579 31444 ft 503 kts 284°
2026-05-04 04:48 46.67794 -152.86245 31438 ft 502 kts 284°
2026-05-04 04:49 46.73115 -153.10407 31427 ft 500 kts 284°
2026-05-04 04:49 46.75228 -153.20076 31415 ft 500 kts 284°
2026-05-04 04:50 46.76976 -153.28107 31413 ft 500 kts 284°
2026-05-04 04:50 46.79422 -153.39406 31410 ft 500 kts 284°
2026-05-04 04:51 46.81157 -153.47459 31421 ft 500 kts 284°
2026-05-04 04:51 46.83232 -153.57125 31412 ft 499 kts 284°
2026-05-04 04:52 46.85293 -153.66770 31419 ft 496 kts 284°
2026-05-04 04:52 46.87337 -153.76382 31401 ft 493 kts 284°
2026-05-04 04:53 46.89359 -153.85937 31417 ft 491 kts 284°
2026-05-04 04:53 46.91361 -153.95445 31406 ft 489 kts 284°
2026-05-04 04:54 46.93352 -154.04939 31414 ft 488 kts 284°
2026-05-04 04:54 46.95329 -154.14419 31416 ft 488 kts 284°
2026-05-04 04:55 46.97303 -154.23924 31422 ft 489 kts 284°
2026-05-04 04:55 46.99278 -154.33479 31425 ft 490 kts 284°
2026-05-04 04:56 47.01229 -154.42964 31425 ft 490 kts 284°
2026-05-04 04:56 47.03190 -154.52542 31424 ft 491 kts 284°
2026-05-04 04:57 47.05143 -154.62134 31432 ft 491 kts 284°
2026-05-04 04:57 47.07088 -154.71721 31430 ft 490 kts 284°
2026-05-04 04:58 47.09016 -154.81271 31434 ft 488 kts 284°
2026-05-04 04:58 47.10931 -154.90809 31445 ft 487 kts 284°
2026-05-04 04:59 47.12837 -155.00347 31453 ft 486 kts 284°
2026-05-04 04:59 47.14731 -155.09871 31455 ft 485 kts 284°
2026-05-04 05:00 47.16613 -155.19381 31471 ft 485 kts 284°
2026-05-04 05:01 47.19422 -155.33662 31484 ft 485 kts 284°
2026-05-04 05:01 47.21281 -155.43171 31490 ft 483 kts 284°
2026-05-04 05:02 47.23115 -155.52598 31493 ft 482 kts 284°
2026-05-04 05:02 47.24947 -155.62071 31504 ft 481 kts 284°
2026-05-04 05:03 47.26769 -155.71532 31507 ft 480 kts 284°
2026-05-04 05:04 47.30389 -155.90462 31531 ft 481 kts 284°
2026-05-04 05:04 47.32194 -155.99977 31552 ft 482 kts 284°
2026-05-04 05:06 47.39329 -156.38050 31590 ft 478 kts 284°
2026-05-04 05:07 47.41078 -156.47509 31609 ft 478 kts 284°
2026-05-04 05:07 47.42817 -156.56968 31623 ft 477 kts 284°
2026-05-04 05:09 47.50512 -156.99370 31652 ft 474 kts 284°
2026-05-04 05:10 47.52212 -157.08876 31668 ft 475 kts 284°
2026-05-04 05:10 47.53885 -157.18280 31669 ft 478 kts 284°
2026-05-04 05:11 47.55571 -157.27812 31667 ft 479 kts 284°
2026-05-04 05:11 47.57256 -157.37366 31687 ft 480 kts 284°
2026-05-04 05:12 47.58924 -157.46919 31698 ft 479 kts 283°
2026-05-04 05:12 47.60594 -157.56486 31690 ft 479 kts 284°
2026-05-04 05:13 47.62240 -157.66014 31709 ft 477 kts 283°
2026-05-04 05:13 47.63876 -157.75496 31711 ft 472 kts 283°
2026-05-04 05:14 47.65492 -157.84900 31720 ft 468 kts 283°
2026-05-04 05:14 47.67081 -157.94256 31724 ft 466 kts 283°
2026-05-04 05:15 47.68661 -158.03568 31734 ft 465 kts 283°
2026-05-04 05:15 47.70240 -158.12891 31732 ft 468 kts 283°
2026-05-04 05:16 47.71827 -158.22377 31755 ft 477 kts 283°
2026-05-04 05:16 47.73418 -158.31940 31743 ft 477 kts 283°
2026-05-04 05:17 47.75006 -158.41504 31740 ft 476 kts 283°
2026-05-04 05:17 47.76581 -158.51052 31748 ft 474 kts 283°
2026-05-04 05:18 47.78140 -158.60561 31746 ft 472 kts 283°
2026-05-04 05:18 47.79680 -158.70005 31756 ft 470 kts 283°
2026-05-04 05:19 47.81200 -158.79380 31771 ft 469 kts 283°
2026-05-04 05:19 47.82720 -158.88809 31766 ft 468 kts 283°
2026-05-04 05:20 47.84230 -158.98227 31779 ft 467 kts 283°
2026-05-04 05:20 47.85724 -159.07607 31776 ft 466 kts 283°
2026-05-04 05:21 47.87214 -159.16993 31801 ft 464 kts 283°
2026-05-04 05:21 47.88692 -159.26299 31792 ft 459 kts 283°
2026-05-04 05:22 47.90119 -159.35518 31793 ft 454 kts 283°
2026-05-04 05:22 47.91538 -159.44631 31805 ft 450 kts 283°
2026-05-04 05:23 47.92956 -159.53792 31819 ft 458 kts 283°
2026-05-04 05:23 47.94386 -159.63000 31812 ft 458 kts 283°
2026-05-04 05:24 47.95795 -159.72214 31814 ft 453 kts 283°
2026-05-04 05:24 47.97186 -159.81394 31818 ft 456 kts 283°
2026-05-04 05:25 47.98606 -159.90718 31837 ft 464 kts 283°
2026-05-04 05:25 48.00006 -160.00038 31824 ft 459 kts 283°
2026-05-04 05:26 48.01376 -160.09356 31855 ft 458 kts 282°
2026-05-04 05:26 48.02712 -160.18634 31831 ft 457 kts 282°
2026-05-04 05:28 48.07973 -160.55615 31834 ft 453 kts 283°
2026-05-04 05:29 48.09262 -160.64797 31854 ft 450 kts 283°
2026-05-04 05:29 48.10530 -160.73893 31864 ft 449 kts 283°
2026-05-04 05:31 48.15528 -161.10298 31883 ft 442 kts 284°
2026-05-04 05:32 48.16737 -161.19241 31883 ft 440 kts 284°
2026-05-04 05:33 48.18545 -161.32720 31876 ft 440 kts 284°
2026-05-04 05:33 48.19738 -161.41692 31893 ft 438 kts 284°
2026-05-04 05:34 48.20919 -161.50621 31894 ft 436 kts 284°
2026-05-04 05:34 48.22091 -161.59534 31902 ft 435 kts 284°
2026-05-04 05:35 48.23252 -161.68431 31906 ft 435 kts 284°
2026-05-04 05:35 48.24405 -161.77318 31919 ft 433 kts 284°
2026-05-04 05:36 48.25549 -161.86193 31916 ft 432 kts 284°
2026-05-04 05:36 48.26684 -161.95050 31916 ft 432 kts 284°
2026-05-04 05:37 48.27809 -162.03890 31916 ft 431 kts 284°
2026-05-04 05:37 48.28928 -162.12742 31922 ft 431 kts 284°
2026-05-04 05:38 48.30595 -162.26032 31929 ft 432 kts 284°
2026-05-04 05:38 48.31698 -162.34902 31931 ft 432 kts 284°
2026-05-04 05:39 48.33158 -162.46735 31928 ft 433 kts 284°
2026-05-04 05:40 48.34790 -162.60079 31927 ft 433 kts 284°
2026-05-04 05:40 48.35869 -162.68982 31936 ft 433 kts 284°
2026-05-04 05:41 48.36941 -162.77885 31947 ft 433 kts 284°
2026-05-04 05:41 48.38008 -162.86806 31951 ft 433 kts 284°
2026-05-04 05:42 48.39068 -162.95731 31949 ft 433 kts 284°
2026-05-04 05:42 48.40121 -163.04657 31945 ft 434 kts 283°
2026-05-04 05:43 48.41169 -163.13610 31960 ft 434 kts 283°
2026-05-04 05:45 48.45296 -163.49482 31966 ft 436 kts 283°
2026-05-04 05:47 48.49321 -163.85500 31967 ft 436 kts 282°
2026-05-04 05:47 48.50310 -163.94510 31980 ft 436 kts 282°
2026-05-04 05:48 48.51292 -164.03537 31995 ft 435 kts 282°
2026-05-04 05:48 48.52266 -164.12551 31985 ft 436 kts 282°
2026-05-04 05:49 48.53234 -164.21573 31990 ft 436 kts 282°
2026-05-04 05:49 48.54193 -164.30584 31998 ft 436 kts 282°
2026-05-04 05:51 48.57967 -164.66762 31986 ft 436 kts 282°
2026-05-04 05:52 48.58893 -164.75808 32005 ft 436 kts 281°
2026-05-04 05:52 48.59811 -164.84859 32012 ft 436 kts 281°
2026-05-04 05:54 48.63416 -165.21118 32016 ft 437 kts 281°
2026-05-04 05:55 48.64302 -165.30214 32017 ft 437 kts 281°
2026-05-04 05:55 48.65181 -165.39324 32019 ft 438 kts 281°
2026-05-04 05:56 48.66054 -165.48437 32026 ft 438 kts 281°
2026-05-04 05:56 48.66919 -165.57553 32017 ft 438 kts 281°
2026-05-04 05:57 48.67778 -165.66682 32031 ft 438 kts 281°
2026-05-04 05:57 48.68630 -165.75815 32030 ft 439 kts 281°
2026-05-04 05:58 48.69475 -165.84964 32033 ft 439 kts 281°
2026-05-04 05:58 48.70314 -165.94115 32033 ft 439 kts 280°
2026-05-04 05:59 48.71145 -166.03268 32032 ft 439 kts 280°
2026-05-04 05:59 48.71971 -166.12450 32043 ft 440 kts 280°
2026-05-04 06:00 48.72790 -166.21633 32044 ft 441 kts 280°
2026-05-04 06:00 48.73603 -166.30843 32046 ft 441 kts 280°
2026-05-04 06:01 48.74409 -166.40054 32046 ft 441 kts 280°
2026-05-04 06:03 48.77553 -166.76861 32043 ft 441 kts 279°
2026-05-04 06:05 48.80970 -167.18558 32033 ft 445 kts 278°
2026-05-04 06:06 48.81713 -167.27878 32038 ft 446 kts 278°
2026-05-04 06:06 48.82451 -167.37242 32056 ft 447 kts 278°
2026-05-04 06:07 48.83183 -167.46636 32055 ft 449 kts 278°
2026-05-04 06:07 48.83910 -167.56061 32056 ft 450 kts 278°
2026-05-04 06:08 48.84630 -167.65493 32054 ft 450 kts 278°
2026-05-04 06:08 48.85343 -167.74940 32054 ft 450 kts 277°
2026-05-04 06:09 48.86049 -167.84393 32061 ft 451 kts 277°
2026-05-04 06:11 48.88792 -168.22197 32066 ft 452 kts 277°
2026-05-04 06:13 48.91429 -168.60317 33298 ft 452 kts 276°
2026-05-04 06:14 48.93322 -168.88897 34060 ft 452 kts 276°
2026-05-04 06:14 48.93629 -168.93639 34066 ft 450 kts 276°
2026-05-04 06:15 48.94236 -169.03100 34072 ft 448 kts 276°
2026-05-04 06:15 48.94833 -169.12529 34071 ft 447 kts 276°
2026-05-04 06:16 48.95422 -169.21952 34073 ft 447 kts 276°
2026-05-04 06:16 48.96004 -169.31383 34073 ft 448 kts 276°
2026-05-04 06:17 48.96578 -169.40825 34074 ft 449 kts 276°
2026-05-04 06:17 48.97147 -169.50306 34073 ft 450 kts 276°
2026-05-04 06:18 48.97708 -169.59782 34070 ft 450 kts 276°
2026-05-04 06:20 48.99865 -169.97666 34068 ft 449 kts 274°
2026-05-04 06:21 48.98781 -170.21316 34072 ft 448 kts 265°
2026-05-04 06:22 48.98246 -170.30753 34070 ft 448 kts 265°
2026-05-04 06:25 48.94219 -170.97101 34066 ft 450 kts 264°
2026-05-04 06:26 48.93611 -171.06569 34067 ft 450 kts 264°
2026-05-04 06:26 48.92995 -171.16050 34061 ft 450 kts 264°
2026-05-04 06:27 48.91423 -171.39698 34061 ft 452 kts 264°
2026-05-04 06:28 48.90884 -171.47642 34059 ft 452 kts 264°
2026-05-04 06:28 48.90231 -171.57157 34050 ft 452 kts 264°
2026-05-04 06:29 48.89570 -171.66672 34052 ft 453 kts 263°
2026-05-04 06:29 48.88900 -171.76205 34050 ft 454 kts 263°
2026-05-04 06:30 48.88221 -171.85745 34054 ft 455 kts 263°
2026-05-04 06:30 48.87531 -171.95320 34051 ft 456 kts 263°
2026-05-04 06:31 48.86838 -172.04835 34051 ft 456 kts 263°
2026-05-04 06:31 48.86128 -172.14475 34049 ft 457 kts 262°
2026-05-04 06:33 48.83212 -172.52929 34035 ft 459 kts 262°
2026-05-04 06:34 48.82463 -172.62545 34034 ft 459 kts 261°
2026-05-04 06:34 48.81704 -172.72176 34028 ft 459 kts 261°
2026-05-04 06:36 48.78598 -173.10536 34018 ft 459 kts 261°
2026-05-04 06:37 48.77800 -173.20140 34007 ft 459 kts 261°
2026-05-04 06:37 48.76994 -173.29742 34009 ft 459 kts 261°
2026-05-04 06:38 48.76180 -173.39333 33997 ft 459 kts 261°
2026-05-04 06:40 48.72832 -173.77836 33977 ft 462 kts 260°
2026-05-04 06:40 48.71971 -173.87495 33984 ft 462 kts 260°
2026-05-04 06:41 48.71103 -173.97144 33978 ft 464 kts 259°
2026-05-04 06:41 48.70222 -174.06831 33976 ft 465 kts 259°
2026-05-04 06:42 48.69332 -174.16538 33962 ft 466 kts 259°
2026-05-04 06:44 48.65679 -174.55442 33934 ft 468 kts 259°
2026-05-04 06:44 48.64751 -174.65098 33943 ft 467 kts 259°
2026-05-04 06:45 48.63809 -174.74810 33925 ft 467 kts 259°
2026-05-04 06:45 48.62857 -174.84538 33928 ft 468 kts 258°
2026-05-04 06:46 48.61897 -174.94255 33915 ft 468 kts 258°
2026-05-04 06:46 48.60930 -175.03974 33905 ft 467 kts 259°
2026-05-04 06:48 48.56985 -175.42724 33889 ft 467 kts 258°
2026-05-04 06:50 48.52913 -175.81387 33880 ft 465 kts 258°
2026-05-04 06:51 48.51886 -175.90940 33862 ft 464 kts 258°
2026-05-04 06:51 48.50847 -176.00526 33856 ft 464 kts 258°
2026-05-04 06:52 48.49798 -176.10122 33842 ft 464 kts 258°
2026-05-04 06:52 48.48742 -176.19716 33851 ft 464 kts 258°
2026-05-04 06:53 48.47676 -176.29316 33841 ft 465 kts 257°
2026-05-04 06:53 48.46600 -176.38928 33831 ft 465 kts 257°
2026-05-04 06:54 48.45516 -176.48541 33830 ft 465 kts 257°
2026-05-04 06:54 48.44423 -176.58156 33818 ft 466 kts 258°
2026-05-04 06:55 48.43323 -176.67758 33815 ft 466 kts 257°
2026-05-04 06:55 48.42212 -176.77383 33799 ft 466 kts 258°
2026-05-04 06:57 48.37690 -177.15822 33790 ft 465 kts 257°
2026-05-04 06:58 48.36552 -177.25323 33779 ft 465 kts 258°
2026-05-04 06:58 48.35398 -177.34883 33773 ft 464 kts 257°
2026-05-04 06:59 48.34237 -177.44425 33783 ft 464 kts 258°
2026-05-04 06:59 48.33068 -177.53972 33780 ft 465 kts 258°
2026-05-04 07:01 48.28277 -177.92379 33761 ft 469 kts 258°
2026-05-04 07:02 48.27054 -178.02018 33761 ft 470 kts 258°
2026-05-04 07:02 48.25821 -178.11661 33758 ft 471 kts 258°
2026-05-04 07:03 48.24578 -178.21321 33757 ft 472 kts 258°
2026-05-04 07:03 48.23326 -178.30975 33765 ft 472 kts 258°
2026-05-04 07:04 48.22064 -178.40642 33752 ft 471 kts 258°
2026-05-04 07:04 48.20807 -178.50207 33752 ft 470 kts 258°
2026-05-04 07:05 48.19537 -178.59808 33754 ft 469 kts 258°
2026-05-04 07:05 48.18262 -178.69376 33749 ft 468 kts 258°
2026-05-04 07:06 48.16338 -178.83692 33748 ft 467 kts 258°
2026-05-04 07:07 48.15049 -178.93208 33744 ft 466 kts 258°
2026-05-04 07:09 48.09809 -179.31267 33741 ft 467 kts 258°
2026-05-04 07:09 48.08481 -179.40751 33739 ft 466 kts 258°
2026-05-04 07:10 48.07145 -179.50243 33733 ft 466 kts 258°
2026-05-04 07:12 48.01731 -179.88096 33729 ft 466 kts 257°
2026-05-04 07:12 48.00357 -179.97547 33732 ft 465 kts 257°
2026-05-04 07:13 47.98454 179.93240 33734 ft 465 kts 250°
2026-05-04 07:13 47.96181 179.84211 33726 ft 464 kts 250°
2026-05-04 07:14 47.90651 179.61697 33723 ft 463 kts 250°
2026-05-04 07:15 47.88432 179.52682 33728 ft 463 kts 250°
2026-05-04 07:15 47.86209 179.43693 33716 ft 463 kts 250°
2026-05-04 07:16 47.83978 179.34709 33717 ft 463 kts 250°
2026-05-04 07:16 47.81736 179.25722 33715 ft 462 kts 250°
2026-05-04 07:17 47.79872 179.18274 33711 ft 462 kts 250°
2026-05-04 07:17 47.77608 179.09264 33714 ft 462 kts 250°
2026-05-04 07:18 47.75368 179.00381 33713 ft 462 kts 250°
2026-05-04 07:18 47.73108 178.91455 33709 ft 461 kts 250°
2026-05-04 07:19 47.70828 178.82484 33708 ft 461 kts 250°
2026-05-04 07:19 47.68569 178.73632 33713 ft 461 kts 250°
2026-05-04 07:20 47.66291 178.64741 33711 ft 461 kts 250°
2026-05-04 07:20 47.64008 178.55864 33704 ft 460 kts 250°
2026-05-04 07:22 47.54828 178.20509 33698 ft 458 kts 250°
2026-05-04 07:23 47.52523 178.11719 33697 ft 458 kts 250°
2026-05-04 07:23 47.50211 178.02931 33699 ft 458 kts 250°
2026-05-04 07:24 47.47897 177.94171 33696 ft 458 kts 250°
2026-05-04 07:24 47.45572 177.85403 33699 ft 457 kts 250°
2026-05-04 07:26 47.36236 177.50519 33696 ft 456 kts 250°
2026-05-04 07:27 47.33889 177.41833 33686 ft 455 kts 250°
2026-05-04 07:27 47.31544 177.33183 33686 ft 454 kts 250°
2026-05-04 07:28 47.29195 177.24551 33685 ft 454 kts 250°
2026-05-04 07:28 47.26842 177.15935 33682 ft 453 kts 250°
2026-05-04 07:29 47.24497 177.07379 33683 ft 453 kts 251°
2026-05-04 07:29 47.22118 176.98732 33684 ft 454 kts 251°
2026-05-04 07:30 47.19760 176.90188 33683 ft 454 kts 251°
2026-05-04 07:30 47.17379 176.81592 33688 ft 454 kts 251°
2026-05-04 07:31 47.14988 176.72997 33681 ft 455 kts 250°
2026-05-04 07:33 47.05350 176.38645 33675 ft 455 kts 251°
2026-05-04 07:33 47.02922 176.30069 33670 ft 455 kts 251°
2026-05-04 07:34 47.00492 176.21515 33668 ft 455 kts 251°
2026-05-04 07:34 46.98052 176.12956 33667 ft 455 kts 251°
2026-05-04 07:35 46.95607 176.04408 33669 ft 455 kts 250°
2026-05-04 07:35 46.93153 175.95861 33668 ft 455 kts 250°
2026-05-04 07:36 46.90693 175.87323 33658 ft 455 kts 251°
2026-05-04 07:38 46.80878 175.53552 33661 ft 449 kts 251°
2026-05-04 07:38 46.78422 175.45175 33673 ft 448 kts 252°
2026-05-04 07:39 46.75968 175.36827 33667 ft 448 kts 252°
2026-05-04 07:39 46.73504 175.28475 33666 ft 449 kts 251°
2026-05-04 07:40 46.71043 175.20162 33658 ft 449 kts 251°
2026-05-04 07:40 46.68561 175.11811 33641 ft 450 kts 252°
2026-05-04 07:41 46.66058 175.03417 33640 ft 449 kts 252°
2026-05-04 07:41 46.63583 174.95143 33649 ft 448 kts 252°
2026-05-04 07:42 46.61092 174.86841 33660 ft 447 kts 252°
2026-05-04 07:42 46.58600 174.78566 33662 ft 447 kts 252°
2026-05-04 07:43 46.56101 174.70294 33652 ft 446 kts 252°
2026-05-04 07:43 46.53609 174.62074 33658 ft 445 kts 252°
2026-05-04 07:44 46.51109 174.53849 33668 ft 445 kts 252°
2026-05-04 07:44 46.48601 174.45628 33665 ft 445 kts 252°
2026-05-04 07:45 46.46092 174.37428 33668 ft 445 kts 252°
2026-05-04 07:45 46.43575 174.29238 33656 ft 444 kts 253°
2026-05-04 07:46 46.41061 174.21078 33671 ft 442 kts 253°
2026-05-04 07:46 46.38554 174.12969 33669 ft 440 kts 253°
2026-05-04 07:47 46.36051 174.04895 33675 ft 439 kts 253°
2026-05-04 07:49 46.26077 173.72979 33684 ft 434 kts 254°
2026-05-04 07:49 46.23577 173.65037 33685 ft 434 kts 254°
2026-05-04 07:50 46.21071 173.57106 33687 ft 434 kts 254°
2026-05-04 07:50 46.18562 173.49190 33687 ft 434 kts 254°
2026-05-04 07:51 46.16055 173.41307 33679 ft 431 kts 255°
2026-05-04 07:51 46.13557 173.33477 33689 ft 429 kts 255°
2026-05-04 07:52 46.11065 173.25687 33704 ft 427 kts 255°
2026-05-04 07:52 46.08573 173.17922 33701 ft 425 kts 256°
2026-05-04 07:54 45.98657 172.87231 33717 ft 423 kts 256°
2026-05-04 07:55 45.96168 172.79593 33709 ft 420 kts 256°
2026-05-04 07:55 45.93690 172.72011 33681 ft 418 kts 257°
2026-05-04 07:56 45.91224 172.64486 33719 ft 414 kts 257°
2026-05-04 07:56 45.88777 172.57041 33732 ft 411 kts 257°
2026-05-04 07:57 45.86336 172.49625 33737 ft 410 kts 257°
2026-05-04 07:57 45.83916 172.42294 33743 ft 409 kts 257°
2026-05-04 07:58 45.81462 172.34877 33752 ft 410 kts 257°
2026-05-04 07:58 45.79009 172.27487 33752 ft 411 kts 257°
2026-05-04 07:59 45.76545 172.20087 33752 ft 412 kts 257°
2026-05-04 07:59 45.74065 172.12667 33704 ft 412 kts 258°
2026-05-04 08:00 45.71637 172.05471 33754 ft 398 kts 258°
2026-05-04 08:02 45.62096 171.77150 33718 ft 392 kts 259°
2026-05-04 08:02 45.59731 171.70192 33771 ft 388 kts 260°
2026-05-04 08:03 45.57775 171.64447 33777 ft 385 kts 260°
2026-05-04 08:03 45.55437 171.57590 33781 ft 384 kts 260°
2026-05-04 08:04 45.53100 171.50751 33801 ft 383 kts 261°
2026-05-04 08:04 45.50757 171.43906 33798 ft 384 kts 260°
2026-05-04 08:05 45.48404 171.37062 33794 ft 384 kts 261°
2026-05-04 08:05 45.46049 171.30229 33799 ft 385 kts 261°
2026-05-04 08:06 45.43682 171.23378 33780 ft 385 kts 261°
2026-05-04 08:06 45.41314 171.16542 33805 ft 386 kts 261°
2026-05-04 08:08 45.31763 170.89147 33838 ft 389 kts 261°
2026-05-04 08:11 45.20845 170.58179 33852 ft 390 kts 260°
2026-05-04 08:11 45.17175 170.47844 33839 ft 391 kts 259°
2026-05-04 08:12 45.14721 170.40957 33865 ft 392 kts 259°
2026-05-04 08:12 45.12257 170.34057 33843 ft 393 kts 259°
2026-05-04 08:13 45.09781 170.27145 33877 ft 394 kts 258°
2026-05-04 08:13 45.07292 170.20211 33884 ft 396 kts 258°
2026-05-04 08:14 45.04790 170.13260 33887 ft 397 kts 258°
2026-05-04 08:16 44.92983 169.86210 33896 ft 412 kts 251°
2026-05-04 08:16 44.89665 169.79623 33909 ft 412 kts 250°
2026-05-04 08:17 44.86363 169.73099 33920 ft 412 kts 250°
2026-05-04 08:17 44.83031 169.66545 33879 ft 412 kts 250°
2026-05-04 08:19 44.69611 169.40343 33945 ft 414 kts 249°
2026-05-04 08:20 44.66232 169.33783 33933 ft 414 kts 249°
2026-05-04 08:20 44.62852 169.27239 33951 ft 414 kts 249°
2026-05-04 08:21 44.59468 169.20700 33959 ft 414 kts 249°
2026-05-04 08:21 44.56079 169.14165 33963 ft 414 kts 249°
2026-05-04 08:22 44.52682 169.07630 33968 ft 415 kts 249°
2026-05-04 08:24 44.39076 168.81600 33980 ft 416 kts 249°
2026-05-04 08:24 44.35652 168.75087 33987 ft 416 kts 249°
2026-05-04 08:25 44.32220 168.68573 33954 ft 417 kts 248°
2026-05-04 08:25 44.28779 168.62059 33981 ft 416 kts 248°
2026-05-04 08:27 44.14989 168.36090 34013 ft 417 kts 248°
2026-05-04 08:28 44.11521 168.29594 34001 ft 418 kts 247°
2026-05-04 08:28 44.08053 168.23116 34016 ft 418 kts 247°
2026-05-04 08:29 44.04600 168.16680 34016 ft 418 kts 247°
2026-05-04 08:31 43.90667 167.90848 34022 ft 418 kts 247°
2026-05-04 08:33 43.76630 167.65055 34055 ft 419 kts 246°
2026-05-04 08:35 43.62556 167.39417 34063 ft 419 kts 246°
2026-05-04 08:35 43.59024 167.33020 34075 ft 420 kts 246°
2026-05-04 08:37 43.46650 167.10717 34070 ft 419 kts 245°
2026-05-04 08:38 43.43102 167.04350 34084 ft 419 kts 245°
2026-05-04 08:38 43.39544 166.97978 34087 ft 420 kts 245°
2026-05-04 08:40 43.25260 166.72547 34074 ft 421 kts 244°
2026-05-04 08:41 43.21672 166.66193 34089 ft 422 kts 244°
2026-05-04 08:41 43.18069 166.59826 34104 ft 423 kts 244°
2026-05-04 08:42 43.14461 166.53462 34107 ft 424 kts 244°
2026-05-04 08:42 43.10839 166.47090 34114 ft 424 kts 243°
2026-05-04 08:43 43.07218 166.40734 34103 ft 424 kts 243°
2026-05-04 08:43 43.03584 166.34372 34105 ft 424 kts 243°
2026-05-04 08:44 42.99944 166.28009 34087 ft 424 kts 243°
2026-05-04 08:46 42.85395 166.02713 34123 ft 424 kts 242°
2026-05-04 08:46 42.81748 165.96405 34125 ft 424 kts 242°
2026-05-04 08:47 42.78093 165.90096 34129 ft 424 kts 242°
2026-05-04 08:47 42.74437 165.83801 34101 ft 424 kts 242°
2026-05-04 08:48 42.70798 165.77547 34100 ft 424 kts 241°
2026-05-04 08:48 42.67142 165.71278 34129 ft 424 kts 241°
2026-05-04 08:49 42.63473 165.65000 34134 ft 424 kts 241°
2026-05-04 08:50 42.50624 165.43117 34138 ft 424 kts 241°
2026-05-04 08:51 42.46950 165.36890 34141 ft 423 kts 240°
2026-05-04 08:51 42.43900 165.31728 34141 ft 424 kts 240°
2026-05-04 08:52 42.40213 165.25501 34148 ft 424 kts 240°
2026-05-04 08:52 42.36522 165.19282 34151 ft 425 kts 240°
2026-05-04 08:54 42.21693 164.94424 34156 ft 425 kts 240°
2026-05-04 08:55 42.17975 164.88225 34156 ft 425 kts 240°
2026-05-04 08:55 42.14231 164.81994 34156 ft 425 kts 240°
2026-05-04 09:01 41.75046 164.17550 34161 ft 423 kts 239°
2026-05-04 09:01 41.71301 164.11462 34160 ft 423 kts 239°
2026-05-04 09:02 41.67567 164.05405 34162 ft 422 kts 239°
2026-05-04 09:02 41.63823 163.99342 34155 ft 422 kts 239°
2026-05-04 09:03 41.60087 163.93306 34163 ft 422 kts 239°
2026-05-04 09:03 41.56336 163.87258 34163 ft 422 kts 239°
2026-05-04 09:04 41.52588 163.81227 34166 ft 422 kts 239°